User: anonymous   Login
Location: Caltech
(34.1382°N, 118.1253°W)
Time: 03:48:32
(UTC-07:00)
Language:

Cosmos 2251 Rocket - Orbit

View from above orbital plane
View from above orbital plane
View from above satellite
View from above satellite

Ground track
Ground track

The orbit data is extracted from the following two-line orbital elements,

1 22676U 93036B   18114.91089838 +.00000000 +00000-0 +95549-5 0  9992
2 22676 074.0423 331.7494 0019728 281.8128 078.0811 14.33954753299743
Epoch (UTC): 24 April 2018 21:51:41
Eccentricity: 0.0019728
inclination: 74.0423°
perigee height: 764 km
apogee height: 792 km
right ascension of ascending node: 331.7494°
argument of perigee: 281.8128°
revolutions per day: 14.33954753
mean anomaly at epoch: 78.0811°
orbit number at epoch: 29974

The dashed part of the orbit path shows where the satellite is in the earth's shadow,  

DLR